| time (UTC) | temp F | wind direction | speed MPH | gust MPH | rain 1hr in | rain 24hr in | rain mn in | humidity % | barometer mb |
| 20260510154516 | 58 | 0 | 16.0 | 23.0 | 0.00 | 0.00 | 0.00 | 58 | 1022.1 |
| 20260510153516 | 58 | 0 | 16.0 | 25.0 | 0.00 | 0.00 | 0.00 | 58 | 1021.8 |
| 20260510152636 | 58 | 0 | 12.0 | 23.0 | 0.00 | 0.00 | 0.00 | 58 | 1021.9 |
| 20260510151556 | 59 | 0 | 10.0 | 24.0 | 0.00 | 0.00 | 0.00 | 58 | 1021.6 |
| 20260510150636 | 58 | 0 | 15.0 | 22.0 | 0.00 | 0.00 | 0.00 | 59 | 1021.3 |
| 20260510145556 | 57 | 0 | 11.0 | 22.0 | 0.00 | 0.00 | 0.00 | 61 | 1021.1 |
| 20260510144556 | 56 | 0 | 13.0 | 21.0 | 0.00 | 0.00 | 0.00 | 61 | 1020.9 |
| 20260510143516 | 56 | 0 | 11.0 | 23.0 | 0.00 | 0.00 | 0.00 | 62 | 1020.7 |
| 20260510142516 | 56 | 0 | 11.0 | 22.0 | 0.00 | 0.00 | 0.00 | 62 | 1020.6 |
| 20260510141636 | 55 | 0 | 12.0 | 24.0 | 0.00 | 0.00 | 0.00 | 63 | 1020.8 |
| 20260510140516 | 55 | 0 | 12.0 | 20.0 | 0.00 | 0.00 | 0.00 | 63 | 1021.3 |
| 20260510135516 | 56 | 0 | 9.0 | 16.0 | 0.00 | 0.00 | 0.00 | 63 | 1021.4 |
| 20260510134556 | 55 | 0 | 10.0 | 15.0 | 0.00 | 0.00 | 0.00 | 63 | 1021.3 |
| 20260510133556 | 55 | 0 | 9.0 | 16.0 | 0.00 | 0.00 | 0.00 | 63 | 1021.4 |
| 20260510132516 | 55 | 0 | 8.0 | 16.0 | 0.00 | 0.00 | 0.00 | 64 | 1021.4 |
| 20260510131556 | 55 | 0 | 9.0 | 15.0 | 0.00 | 0.00 | 0.00 | 64 | 1020.9 |
| 20260510130515 | 55 | 0 | 9.0 | 20.0 | 0.00 | 0.00 | 0.00 | 64 | 1020.7 |
| 20260510125556 | 55 | 0 | 8.0 | 16.0 | 0.00 | 0.00 | 0.00 | 65 | 1020.6 |
| 20260510123515 | 55 | 0 | 9.0 | 15.0 | 0.00 | 0.00 | 0.00 | 66 | 1020.4 |
| 20260510122556 | 54 | 0 | 7.0 | 14.0 | 0.00 | 0.00 | 0.00 | 65 | 1020.3 |
| 20260510121515 | 54 | 0 | 9.0 | 18.0 | 0.00 | 0.00 | 0.00 | 65 | 1020.0 |
| 20260510120515 | 54 | 0 | 8.0 | 15.0 | 0.00 | 0.00 | 0.00 | 65 | 1019.9 |
| 20260510115555 | 54 | 0 | 8.0 | 17.0 | 0.00 | 0.00 | 0.00 | 64 | 1019.7 |
| 20260510113515 | 55 | 0 | 11.0 | 19.0 | 0.00 | 0.00 | 0.00 | 64 | 1019.5 |
| 20260510112515 | 55 | 0 | 10.0 | 27.0 | 0.00 | 0.00 | 0.00 | 63 | 1019.3 |
| 20260510111515 | 55 | 0 | 13.0 | 23.0 | 0.00 | 0.00 | 0.00 | 63 | 1018.9 |
| 20260510110515 | 55 | 0 | 16.0 | 23.0 | 0.00 | 0.00 | 0.00 | 62 | 1018.7 |
| 20260510105515 | 56 | 0 | 16.0 | 24.0 | 0.00 | 0.00 | 0.00 | 61 | 1018.9 |
| 20260510104515 | 57 | 0 | 15.0 | 24.0 | 0.00 | 0.00 | 0.00 | 61 | 1019.0 |
| 20260510102516 | 59 | 0 | 16.0 | 24.0 | 0.00 | 0.00 | 0.00 | 58 | 1018.5 |
| 20260510101555 | 60 | 0 | 13.0 | 23.0 | 0.00 | 0.00 | 0.00 | 58 | 1018.4 |
| 20260510100519 | 60 | 0 | 13.0 | 22.0 | 0.00 | 0.00 | 0.00 | 57 | 1018.0 |
| 20260510093515 | 62 | 0 | 12.0 | 25.0 | 0.00 | 0.00 | 0.00 | 52 | 1017.4 |
| 20260510092515 | 63 | 0 | 13.0 | 23.0 | 0.00 | 0.00 | 0.00 | 51 | 1017.6 |
| 20260510091515 | 63 | 0 | 16.0 | 24.0 | 0.00 | 0.00 | 0.00 | 50 | 1017.3 |
| 20260510090515 | 64 | 0 | 16.0 | 30.0 | 0.00 | 0.00 | 0.00 | 48 | 1017.7 |
| 20260510085515 | 65 | 0 | 16.0 | 28.0 | 0.00 | 0.00 | 0.00 | 44 | 1017.2 |
| 20260510084515 | 66 | 0 | 16.0 | 31.0 | 0.00 | 0.00 | 0.00 | 40 | 1017.3 |
| 20260510083515 | 67 | 0 | 12.0 | 20.0 | 0.00 | 0.00 | 0.00 | 38 | 1016.8 |
| 20260510082635 | 68 | 0 | 14.0 | 20.0 | 0.00 | 0.00 | 0.00 | 37 | 1016.3 |
| 20260510081515 | 67 | 0 | 12.0 | 19.0 | 0.00 | 0.00 | 0.00 | 37 | 1015.7 |
| 20260510080635 | 68 | 0 | 9.0 | 13.0 | 0.00 | 0.00 | 0.00 | 35 | 1016.2 |
| 20260510075555 | 69 | 0 | 9.0 | 18.0 | 0.00 | 0.00 | 0.00 | 34 | 1016.7 |
| 20260510074515 | 70 | 0 | 7.0 | 14.0 | 0.00 | 0.00 | 0.00 | 33 | 1016.9 |
| 20260510073555 | 70 | 0 | 6.0 | 11.0 | 0.00 | 0.00 | 0.00 | 32 | 1016.9 |
| 20260510072515 | 71 | 0 | 8.0 | 13.0 | 0.00 | 0.00 | 0.00 | 30 | 1017.0 |
| 20260510071515 | 71 | 0 | 6.0 | 12.0 | 0.00 | 0.00 | 0.00 | 30 | 1016.9 |
| 20260510070555 | 72 | 0 | 8.0 | 17.0 | 0.00 | 0.00 | 0.00 | 29 | 1017.0 |
| 20260510064515 | 72 | 0 | 12.0 | 29.0 | 0.00 | 0.00 | 0.00 | 29 | 1017.8 |
| 20260510063515 | 72 | 0 | 14.0 | 21.0 | 0.00 | 0.00 | 0.00 | 29 | 1017.2 |
| 20260510062555 | 72 | 0 | 10.0 | 17.0 | 0.00 | 0.00 | 0.00 | 28 | 1016.7 |
| 20260510061557 | 72 | 0 | 7.0 | 15.0 | 0.00 | 0.00 | 0.00 | 28 | 1016.4 |
| 20260510060517 | 72 | 0 | 4.0 | 12.0 | 0.00 | 0.00 | 0.00 | 29 | 1016.2 |
| 20260510055516 | 72 | 0 | 7.0 | 12.0 | 0.00 | 0.00 | 0.00 | 28 | 1015.8 |
| 20260510054516 | 73 | 0 | 6.0 | 13.0 | 0.00 | 0.00 | 0.00 | 28 | 1015.3 |
| 20260510053516 | 73 | 0 | 7.0 | 12.0 | 0.00 | 0.00 | 0.00 | 27 | 1015.2 |
| 20260510052516 | 73 | 0 | 8.0 | 15.0 | 0.00 | 0.00 | 0.00 | 26 | 1015.1 |
| 20260510051636 | 72 | 0 | 4.0 | 10.0 | 0.00 | 0.00 | 0.00 | 28 | 1014.6 |
| 20260510050636 | 72 | 0 | 3.0 | 9.0 | 0.00 | 0.00 | 0.00 | 27 | 1015.0 |
| 20260510045636 | 72 | 0 | 4.0 | 10.0 | 0.00 | 0.00 | 0.00 | 28 | 1014.5 |
| 20260510044516 | 71 | 0 | 4.0 | 8.0 | 0.00 | 0.00 | 0.00 | 28 | 1014.4 |
| 20260510043636 | 72 | 0 | 4.0 | 9.0 | 0.00 | 0.00 | 0.00 | 27 | 1014.4 |
| 20260510042556 | 73 | 0 | 3.0 | 6.0 | 0.00 | 0.00 | 0.00 | 26 | 1014.3 |
| 20260510041516 | 74 | 0 | 1.0 | 9.0 | 0.00 | 0.00 | 0.00 | 25 | 1014.0 |
| 20260510040556 | 75 | 0 | 4.0 | 8.0 | 0.00 | 0.00 | 0.00 | 25 | 1014.0 |
| 20260510035516 | 75 | 0 | 6.0 | 13.0 | 0.00 | 0.00 | 0.00 | 25 | 1013.8 |
| 20260510033515 | 75 | 0 | 4.0 | 14.0 | 0.00 | 0.00 | 0.00 | 25 | 1013.8 |
| 20260510032636 | 76 | 0 | 7.0 | 14.0 | 0.00 | 0.00 | 0.00 | 24 | 1013.4 |
| 20260510031515 | 76 | 0 | 6.0 | 13.0 | 0.00 | 0.00 | 0.00 | 24 | 1013.1 |
| 20260510024636 | 77 | 0 | 5.0 | 11.0 | 0.00 | 0.00 | 0.00 | 22 | 1012.3 |
| 20260510022555 | 77 | 0 | 5.0 | 10.0 | 0.00 | 0.00 | 0.00 | 21 | 1011.5 |
| 20260510020515 | 80 | 0 | 5.0 | 14.0 | 0.00 | 0.00 | 0.00 | 19 | 1011.2 |
| 20260510015555 | 81 | 0 | 5.0 | 12.0 | 0.00 | 0.00 | 0.00 | 18 | 1011.2 |
| 20260510014635 | 80 | 0 | 9.0 | 19.0 | 0.00 | 0.00 | 0.00 | 20 | 1010.9 |
| 20260510013555 | 80 | 0 | 11.0 | 23.0 | 0.00 | 0.00 | 0.00 | 20 | 1010.4 |
| 20260510012515 | 81 | 0 | 16.0 | 24.0 | 0.00 | 0.00 | 0.00 | 19 | 1009.9 |
| 20260510010515 | 82 | 0 | 13.0 | 18.0 | 0.00 | 0.00 | 0.00 | 18 | 1009.4 |
| 20260510005516 | 83 | 0 | 12.0 | 23.0 | 0.00 | 0.00 | 0.00 | 17 | 1009.0 |
| 20260510004555 | 85 | 0 | 6.0 | 11.0 | 0.00 | 0.00 | 0.00 | 13 | 1008.5 |
| 20260510003555 | 86 | 0 | 3.0 | 8.0 | 0.00 | 0.00 | 0.00 | 13 | 1008.2 |
| 20260510001635 | 85 | 0 | 8.0 | 12.0 | 0.00 | 0.00 | 0.00 | 13 | 1007.8 |
| 20260509235515 | 86 | 0 | 2.0 | 4.0 | 0.00 | 0.00 | 0.00 | 14 | 1008.1 |
| 20260509234515 | 87 | 0 | 0.0 | 3.0 | 0.00 | 0.00 | 0.00 | 14 | 1008.2 |
| 20260509233515 | 87 | 0 | 3.0 | 5.0 | 0.00 | 0.00 | 0.00 | 13 | 1008.3 |
| 20260509232515 | 87 | 0 | 3.0 | 5.0 | 0.00 | 0.00 | 0.00 | 13 | 1008.4 |
| 20260509231515 | 87 | 0 | 2.0 | 6.0 | 0.00 | 0.00 | 0.00 | 13 | 1008.4 |
| 20260509225515 | 89 | 0 | 2.0 | 9.0 | 0.00 | 0.00 | 0.00 | 13 | 1008.7 |
| 20260509224515 | 89 | 0 | 3.0 | 8.0 | 0.00 | 0.00 | 0.00 | 14 | 1008.9 |
| 20260509223515 | 89 | 0 | 1.0 | 6.0 | 0.00 | 0.00 | 0.00 | 13 | 1008.9 |
| 20260509222515 | 90 | 0 | 1.0 | 9.0 | 0.00 | 0.00 | 0.00 | 13 | 1009.0 |
| 20260509221555 | 89 | 0 | 5.0 | 10.0 | 0.00 | 0.00 | 0.00 | 14 | 1008.9 |
| 20260509215555 | 89 | 0 | 6.0 | 12.0 | 0.00 | 0.00 | 0.00 | 14 | 1009.1 |
| 20260509214515 | 89 | 0 | 6.0 | 13.0 | 0.00 | 0.00 | 0.00 | 14 | 1009.2 |
| 20260509213515 | 89 | 0 | 7.0 | 18.0 | 0.00 | 0.00 | 0.00 | 14 | 1009.3 |
| 20260509212515 | 89 | 0 | 3.0 | 12.0 | 0.00 | 0.00 | 0.00 | 14 | 1009.6 |
| 20260509211635 | 89 | 0 | 2.0 | 8.0 | 0.00 | 0.00 | 0.00 | 14 | 1009.9 |
| 20260509210515 | 88 | 0 | 2.0 | 8.0 | 0.00 | 0.00 | 0.00 | 15 | 1010.2 |
| 20260509205517 | 88 | 0 | 3.0 | 8.0 | 0.00 | 0.00 | 0.00 | 16 | 1010.5 |
| 20260509204557 | 87 | 0 | 5.0 | 11.0 | 0.00 | 0.00 | 0.00 | 15 | 1010.7 |
| 20260509203557 | 87 | 0 | 3.0 | 9.0 | 0.00 | 0.00 | 0.00 | 16 | 1011.0 |
| 20260509202557 | 87 | 0 | 3.0 | 10.0 | 0.00 | 0.00 | 0.00 | 17 | 1011.4 |
| 20260509201517 | 86 | 0 | 5.0 | 9.0 | 0.00 | 0.00 | 0.00 | 16 | 1011.4 |
| 20260509200516 | 86 | 0 | 2.0 | 8.0 | 0.00 | 0.00 | 0.00 | 16 | 1011.7 |
| 20260509194516 | 87 | 0 | 7.0 | 15.0 | 0.00 | 0.00 | 0.00 | 16 | 1012.0 |
| 20260509193637 | 86 | 0 | 7.0 | 13.0 | 0.00 | 0.00 | 0.00 | 16 | 1011.9 |
| 20260509192635 | 86 | 0 | 9.0 | 16.0 | 0.00 | 0.00 | 0.00 | 15 | 1012.1 |
| 20260509191516 | 86 | 0 | 4.0 | 10.0 | 0.00 | 0.00 | 0.00 | 18 | 1012.3 |
| 20260509190556 | 85 | 0 | 2.0 | 10.0 | 0.00 | 0.00 | 0.00 | 19 | 1012.3 |
| 20260509185516 | 84 | 0 | 4.0 | 12.0 | 0.00 | 0.00 | 0.00 | 19 | 1012.6 |
| 20260509184516 | 83 | 0 | 4.0 | 11.0 | 0.00 | 0.00 | 0.00 | 22 | 1012.7 |
| 20260509183517 | 82 | 0 | 3.0 | 12.0 | 0.00 | 0.00 | 0.00 | 24 | 1013.0 |
| 20260509182556 | 81 | 0 | 4.0 | 9.0 | 0.00 | 0.00 | 0.00 | 25 | 1013.1 |
| 20260509180516 | 80 | 0 | 4.0 | 11.0 | 0.00 | 0.00 | 0.00 | 25 | 1013.8 |
| 20260509175516 | 80 | 0 | 4.0 | 12.0 | 0.00 | 0.00 | 0.00 | 26 | 1014.0 |
| 20260509174636 | 79 | 0 | 5.0 | 14.0 | 0.00 | 0.00 | 0.00 | 27 | 1014.4 |
| 20260509173516 | 78 | 0 | 6.0 | 10.0 | 0.00 | 0.00 | 0.00 | 28 | 1014.8 |
| 20260509172556 | 77 | 0 | 4.0 | 11.0 | 0.00 | 0.00 | 0.00 | 29 | 1015.1 |
| 20260509171516 | 76 | 0 | 4.0 | 11.0 | 0.00 | 0.00 | 0.00 | 30 | 1015.3 |
| 20260509170636 | 76 | 0 | 4.0 | 14.0 | 0.00 | 0.00 | 0.00 | 31 | 1015.5 |
| 20260509165556 | 75 | 0 | 5.0 | 11.0 | 0.00 | 0.00 | 0.00 | 31 | 1015.5 |
| 20260509164516 | 75 | 0 | 4.0 | 14.0 | 0.00 | 0.00 | 0.00 | 32 | 1015.7 |
| 20260509163556 | 74 | 0 | 6.0 | 13.0 | 0.00 | 0.00 | 0.00 | 33 | 1015.6 |
| 20260509162640 | 74 | 0 | 5.0 | 11.0 | 0.00 | 0.00 | 0.00 | 34 | 1015.9 |
| 20260509161636 | 73 | 0 | 6.0 | 12.0 | 0.00 | 0.00 | 0.00 | 35 | 1015.9 |
| 20260509155516 | 72 | 0 | 4.0 | 10.0 | 0.00 | 0.00 | 0.00 | 36 | 1016.2 |